Tracking 34408 objects as of 13-Jun-2026
HD Live streaming from Space Station
objects crossing your sky now

SATCOM 1

Track SATCOM 1 now!
SATCOM 1 is classified as:


NORAD ID: 8476
Int'l Code: 1975-117A
Perigee: 35,923.6 km
Apogee: 36,037.5 km
Inclination: 8.0 °
Period: 1,445.7 minutes
Semi major axis: 42351 km
RCS: 2.5118 m2 (large)
Launch date: December 13, 1975
Source: United States (US)
Launch site: AIR FORCE EASTERN TEST RANGE (AFETR)
Your satellite tracking list
Your tracking list is empty




NASA's NSSDC Master Catalog

Two Line Element Set (TLE):
1 08476U 75117A   26164.44155186 -.00000170  00000-0  00000-0 0  9998
2 08476   7.9986 304.6430 0013447 278.6559   4.6698  0.99609034 46325
Source of the keplerian elements: AFSPC